Location: Klein M�hlingen
(51.9472°N, 11.7453°E)
Time: 12:08:45
(UTC+00:00)

ERS-1 Rocket - Pass Details

Date: 09 April 2020
Orbit: 754 x 757 km, 98.5° (Epoch: 27 May)

Event Time Altitude Azimuth Distance (km) Brightness Sun altitude
Exits shadow 20:47:00 46° 181° (S) 1,006 3.2 -22.3°
Maximum altitude 20:48:29 76° 256° (WSW) 784 3.0 -22.4°
Drops below altitude 10° 20:53:32 10° 342° (NNW) 2,294 6.4 -22.9°
Sets 20:55:51 0° 344° (NNW) 3,223 7.4 -23.1°
